Estación de El Tambo INIA
Ultimos registro cada 15 minutos 43
| N° | Estación | Fecha / Hora | Temperatura | Humedad | Lluvia | Velocidad | Dirección | Radiación | Presion |
| 43 | El Tambo INIA | 04-05-2026 10:30 | 13,5 | 69,6 | 0 | 0 | 0 | 125 | 987 |
| 42 | El Tambo INIA | 04-05-2026 10:15 | 13,1 | 72,8 | 0 | 0,2 | 242 | 145 | 987 |
| 41 | El Tambo INIA | 04-05-2026 10:00 | 12,9 | 73,7 | 0 | 0,4 | 232 | 126 | 987 |
| 40 | El Tambo INIA | 04-05-2026 09:45 | 12,6 | 75,9 | 0 | 0,1 | 207 | 95 | 987 |
| 39 | El Tambo INIA | 04-05-2026 09:30 | 12,3 | 77,4 | 0 | 0,2 | 215 | 75 | 987 |
| 38 | El Tambo INIA | 04-05-2026 09:15 | 11,8 | 78 | 0 | 0,2 | 127 | 65 | 987 |
| 37 | El Tambo INIA | 04-05-2026 09:00 | 11,5 | 80,9 | 0 | 1,2 | 79 | 51 | 987 |
| 36 | El Tambo INIA | 04-05-2026 08:45 | 11,4 | 81,2 | 0 | 1,5 | 78 | 33 | 987 |
| 35 | El Tambo INIA | 04-05-2026 08:30 | 10,7 | 80,7 | 0 | 1,1 | 83 | 24 | 987 |
| 34 | El Tambo INIA | 04-05-2026 08:15 | 10,1 | 89 | 0 | 0,3 | 97 | 14 | 987 |
| 33 | El Tambo INIA | 04-05-2026 08:00 | 10 | 90,2 | 0 | 0 | 2 | 8 | 987 |
| 32 | El Tambo INIA | 04-05-2026 07:45 | 9,8 | 90,5 | 0 | 0,2 | 78 | 3 | 987 |
| 31 | El Tambo INIA | 04-05-2026 07:30 | 9,8 | 90,9 | 0 | 0 | 117 | 1 | 987 |
| 30 | El Tambo INIA | 04-05-2026 07:15 | 9,8 | 91,2 | 0 | 0 | 0 | 0 | 987 |
| 29 | El Tambo INIA | 04-05-2026 07:00 | 9,8 | 92,1 | 0 | 0 | 321 | 0 | 987 |
| 28 | El Tambo INIA | 04-05-2026 06:45 | 9,8 | 89,8 | 0 | 0 | 0 | 0 | 986 |
| 27 | El Tambo INIA | 04-05-2026 06:30 | 9,6 | 89,6 | 0 | 0,2 | 107 | 0 | 986 |
| 26 | El Tambo INIA | 04-05-2026 06:15 | 9,4 | 91,5 | 0 | 0 | 0 | 0 | 986 |
| 25 | El Tambo INIA | 04-05-2026 06:00 | 9,7 | 90,2 | 0 | 0 | 0 | 0 | 986 |
| 24 | El Tambo INIA | 04-05-2026 05:45 | 10,1 | 88,2 | 0 | 0 | 0 | 0 | 986 |
| 23 | El Tambo INIA | 04-05-2026 05:30 | 10,5 | 86,1 | 0 | 0 | 0 | 0 | 986 |
| 22 | El Tambo INIA | 04-05-2026 05:15 | 10,9 | 85 | 0 | 0,3 | 94 | 0 | 986 |
| 21 | El Tambo INIA | 04-05-2026 05:00 | 11 | 82,3 | 0 | 0,9 | 68 | 0 | 986 |
| 20 | El Tambo INIA | 04-05-2026 04:45 | 11 | 83,6 | 0 | 0,1 | 80 | 0 | 986 |
| 19 | El Tambo INIA | 04-05-2026 04:30 | 11,4 | 81,9 | 0 | 0 | 237 | 0 | 986 |
| 18 | El Tambo INIA | 04-05-2026 04:15 | 11,3 | 77,5 | 0 | 0 | 78 | 0 | 986 |
| 17 | El Tambo INIA | 04-05-2026 04:00 | 11,3 | 79,1 | 0 | 0,1 | 79 | 0 | 986 |
| 16 | El Tambo INIA | 04-05-2026 03:45 | 11,4 | 80 | 0 | 0,1 | 78 | 0 | 986 |
| 15 | El Tambo INIA | 04-05-2026 03:30 | 11,3 | 76,6 | 0 | 0,4 | 50 | 0 | 986 |
| 14 | El Tambo INIA | 04-05-2026 03:15 | 11,4 | 77,1 | 0 | 0 | 97 | 0 | 987 |
| 13 | El Tambo INIA | 04-05-2026 03:00 | 11,6 | 78,7 | 0 | 0 | 134 | 0 | 987 |
| 12 | El Tambo INIA | 04-05-2026 02:45 | 11,8 | 79,4 | 0 | 0 | 0 | 0 | 987 |
| 11 | El Tambo INIA | 04-05-2026 02:30 | 12,1 | 76,6 | 0 | 0,3 | 243 | 0 | 987 |
| 10 | El Tambo INIA | 04-05-2026 02:15 | 12,8 | 75,6 | 0 | 0,1 | 342 | 0 | 987 |
| 9 | El Tambo INIA | 04-05-2026 02:00 | 13 | 68,1 | 0 | 0,6 | 122 | 0 | 987 |
| 8 | El Tambo INIA | 04-05-2026 01:45 | 12,7 | 68,9 | 0 | 0,9 | 106 | 0 | 987 |
| 7 | El Tambo INIA | 04-05-2026 01:30 | 12,5 | 69,9 | 0 | 1,2 | 102 | 0 | 987 |
| 6 | El Tambo INIA | 04-05-2026 01:15 | 12 | 69,2 | 0 | 1,3 | 95 | 0 | 987 |
| 5 | El Tambo INIA | 04-05-2026 01:00 | 11,4 | 72,8 | 0 | 0,2 | 101 | 0 | 988 |
| 4 | El Tambo INIA | 04-05-2026 00:45 | 11,7 | 78,6 | 0 | 0 | 107 | 0 | 988 |
| 3 | El Tambo INIA | 04-05-2026 00:30 | 12 | 77,5 | 0 | 0 | 159 | 0 | 988 |
| 2 | El Tambo INIA | 04-05-2026 00:15 | 12,2 | 71,9 | 0 | 0 | 15 | 0 | 988 |
| 1 | El Tambo INIA | 04-05-2026 00:00 | 12,4 | 72,8 | 0 | 0 | 117 | 0 | 988 |